Temperature
14 15 15 15 15 15 14 13 13 14 13 14 13 13 14 14 14 15 15 15 15 15 15 15 15 15 15 15 15 15 15 14 15 14 14 14 14 14 14 14 14 14 13 13
14 15 14 14 15 14 14 14 13 14 13 13 13 14 14 14 14 14 14 14 14 14 15 15 15 15 15 15 14 14 14 14 14 14 14 14 14 14 14 14 14 13 13 13
12 13 14 14 14 14 14 13 13 13 13 13 12 13 13 13 14 14 14 14 14 14 14 14 14 14 14 14 14 14 14 14 14 14 14 13 13 13 13 13 13 13 13 13
11 13 14 14 14 14 14 13 13 13 13 13 13 14 14 14 14 14 14 14 14 14 14 14 14 14 14 14 14 13 13 13 13 13 13 13 13 13 13 13 13 13 13 12
10 12 12 13 14 13 13 13 12 12 12 13 13 13 13 14 14 14 14 14 14 14 14 14 13 13 13 13 13 13 13 12 12 12 12 12 12 12 12 12 12 12 12 12
10 12 13 13 14 14 13 13 13 12 12 12 12 11 12 14 14 14 13 13 13 13 13 13 13 13 13 12 12 12 12 12 12 12 12 12 12 12 12 12 12 12 12 11
10 11 11 12 13 14 13 13 13 13 13 12 12 12 13 13 13 13 13 13 13 13 13 13 12 12 12 12 12 12 11 11 11 11 11 11 11 11 11 11 11 11 11 11
9 10 11 12 12 12 12 13 14 14 14 13 13 13 13 13 13 13 12 12 12 12 12 12 11 11 11 11 11 11 11 11 11 10 10 11 11 11 11 11 11 11 11 11
10 11 12 12 13 14 14 14 14 14 14 13 13 12 12 12 12 12 12 12 11 11 11 11 11 10 10 10 10 10 10 10 10 10 10 10 10 10 10 10 10 10 10 10
9 10 11 12 13 13 13 13 13 13 13 13 12 12 12 12 12 12 11 11 11 11 11 10 10 10 10 10 10 10 10 10 10 9 10 10 10 9 10 10 9 10 10 10
9 9 11 12 13 13 13 13 13 13 13 12 12 12 12 11 11 11 11 10 10 10 10 10 10 10 9 9 9 9 9 9 9 9 9 9 9 9 9 9 9 9 9 9
10 11 10 12 13 13 13 13 12 12 12 12 12 11 11 11 11 10 10 10 10 10 9 9 9 9 9 9 9 9 8 8 8 8 8 8 8 8 8 8 8 8 8 8
13 13 12 12 12 12 12 12 12 12 12 11 11 11 10 10 10 10 9 9 9 9 9 9 9 8 8 8 8 8 8 8 8 7 8 8 8 7 8 8 8 8 8 8
12 12 11 12 12 12 12 11 11 11 11 11 10 10 10 10 9 9 9 9 9 8 8 8 8 8 8 8 7 7 7 7 7 7 7 7 7 7 7 7 7 7 7 7
11 12 11 11 11 11 11 11 10 10 10 10 10 9 9 9 9 9 8 8 8 8 8 8 7 7 7 7 7 7 7 7 6 6 6 6 6 6 6 6 6 6 6 7
11 11 11 11 11 10 10 10 10 10 9 9 9 9 8 8 8 8 8 8 7 7 7 7 7 7 7 6 6 6 6 6 6 6 6 6 6 5 5 5 5 5 5 6
10 10 10 10 10 10 10 9 9 9 9 8 8 8 8 7 7 7 7 7 7 7 7 7 7 6 6 6 6 6 6 5 5 5 5 5 5 5 5 5 5 5 5 5
10 10 10 10 10 9 9 9 9 8 8 8 8 7 7 7 7 7 6 6 6 6 6 6 6 6 6 5 5 5 5 5 5 5 5 4 4 4 4 4 4 4 4 4
10 10 9 9 9 9 8 8 8 7 7 7 7 7 6 6 6 6 6 6 6 5 6 5 5 5 5 5 5 5 4 4 4 4 4 4 4 4 4 4 4 3 3 4
9 9 9 8 8 8 8 7 7 7 7 6 6 6 6 6 6 5 5 5 5 5 5 5 5 5 4 4 4 4 4 4 4 4 4 3 3 3 3 3 3 3 3 3
8 8 8 8 8 7 7 7 7 6 6 6 6 5 5 5 5 5 5 4 5 4 4 4 4 4 4 4 4 4 4 4 3 3 3 3 3 3 3 3 3 3 3 3
8 8 8 7 7 7 7 6 6 6 6 5 5 5 5 5 5 4 4 4 4 4 3 3 3 3 3 3 3 3 3 3 3 3 3 3 2 2 2 2 2 2 2 2
8 7 7 7 7 6 6 6 6 5 5 5 5 5 5 4 4 4 4 4 4 3 3 3 3 3 3 3 3 3 3 3 2 2 2 2 2 2 2 2 1 1 1 1
7 7 7 6 6 6 6 5 5 5 5 5 4 4 4 4 4 4 3 3 3 3 3 3 3 3 3 3 3 3 2 2 2 2 2 1 1 1 1 1 1 1 1 1
6 6 6 6 6 5 5 5 4 4 4 4 4 4 4 4 4 3 3 3 3 3 3 3 2 2 2 2 2 2 2 2 2 2 1 1 1 1 1 1 1 1 1 0
6 6 5 5 5 5 4 4 4 4 4 4 4 4 3 3 3 3 3 3 3 2 2 2 2 2 2 2 2 2 2 2 1 1 1 1 1 1 0 0 0 0 0 0
5 5 5 5 5 4 4 4 4 4 3 3 3 3 3 3 3 3 3 2 2 2 2 2 2 2 2 2 1 1 1 1 1 1 1 0 0 0 0 0 -0 -0 -0 -0
Wind_Speed
4 4 3 3 4 3 5 6 7 6 6 6 5 5 3 2 1 2 2 1 1 1 1 1 1 1 1 2 1 1 2 2 2 3 2 2 2 3 3 3 4 4 4 4
2 2 2 4 5 5 5 5 5 4 5 5 4 2 1 1 1 1 2 2 1 1 1 1 2 2 2 2 1 1 2 3 2 1 1 1 2 2 3 3 3 3 4 4
3 3 2 5 5 5 4 3 5 7 7 3 2 2 2 2 2 2 2 2 1 2 2 3 2 2 2 3 1 1 2 2 1 1 2 2 1 1 3 3 3 3 4 4
1 1 4 5 2 3 4 2 3 4 3 4 4 3 2 1 2 2 2 2 2 2 2 2 2 1 1 1 0 0 1 2 1 1 2 2 1 2 2 2 2 3 4 4
3 2 6 5 2 2 3 3 3 4 3 1 1 2 3 2 2 3 3 2 2 2 2 1 1 1 1 1 1 0 1 2 3 2 2 2 3 3 2 2 2 2 3 3
4 3 5 5 3 1 4 3 4 3 3 2 4 1 4 3 2 2 2 2 1 1 0 1 2 0 1 1 1 1 3 3 3 2 3 4 4 3 2 2 3 2 2 3
4 5 7 5 3 3 3 6 3 3 4 4 4 5 4 2 1 1 2 2 2 1 1 2 1 0 1 0 2 3 3 3 2 2 3 3 3 2 2 2 2 2 2 3
4 4 7 3 3 5 6 3 1 2 3 4 4 2 1 1 1 1 2 2 2 1 2 2 1 1 1 2 4 2 1 2 2 2 2 2 1 2 1 2 2 2 2 3
7 7 4 2 4 3 2 2 2 2 3 3 2 3 2 2 2 2 2 1 1 1 2 2 2 2 2 4 3 2 1 2 2 2 2 1 1 2 1 1 1 2 2 3
4 6 5 4 3 2 2 3 3 3 2 3 3 4 3 3 3 2 2 2 1 1 2 3 3 3 3 3 2 1 1 2 2 2 2 2 1 1 2 2 2 2 3 3
4 6 4 4 4 4 2 2 2 2 2 3 4 4 4 4 4 3 3 3 2 2 3 4 4 3 3 2 1 1 2 2 2 2 2 2 2 2 3 3 4 4 4 3
7 7 5 6 5 3 2 3 3 3 3 3 4 5 4 4 4 3 3 3 3 3 3 4 3 3 3 2 1 1 1 2 2 2 1 1 2 3 4 4 4 4 3 3
7 4 5 5 4 3 4 4 4 4 4 4 4 4 4 4 3 3 3 3 3 4 4 3 3 3 3 2 1 2 2 2 2 2 2 2 2 2 3 4 3 4 4 4
5 3 3 4 4 4 3 3 2 2 3 3 3 3 3 3 3 4 4 4 4 3 3 2 2 3 3 2 2 2 2 3 2 2 2 2 2 2 2 3 3 4 4 5
5 5 5 4 3 3 2 2 2 2 3 3 2 3 3 4 4 5 4 3 2 2 2 2 2 4 2 1 2 2 2 2 2 2 2 2 2 2 2 3 3 4 4 4
3 2 2 3 4 4 3 3 4 4 4 4 3 4 4 4 4 4 3 2 2 3 3 2 3 4 2 1 1 2 2 3 3 2 2 2 2 2 2 2 3 3 4 4
3 3 3 4 4 5 5 5 5 5 4 4 4 4 2 2 2 2 2 2 3 3 3 3 4 3 2 2 2 2 2 2 3 2 2 2 2 2 2 3 3 3 4 4
6 6 6 5 5 5 4 4 4 4 4 4 3 2 2 2 3 4 3 2 2 2 3 3 3 2 2 2 2 1 1 2 2 2 2 2 2 2 2 3 3 4 4 4
3 4 4 4 4 4 3 4 4 3 3 2 2 2 3 3 3 3 2 2 2 4 5 3 3 2 2 3 2 1 2 2 2 2 2 3 3 3 3 3 3 4 4 3
1 1 1 1 1 1 2 2 2 2 2 2 2 2 2 3 3 2 2 3 4 4 4 3 2 2 3 3 2 1 2 3 3 3 3 3 3 3 3 3 4 3 3 3
1 1 1 1 1 1 1 2 1 2 2 2 2 3 3 3 3 2 2 4 5 4 3 3 2 2 2 2 3 2 2 3 3 3 3 3 4 4 4 4 4 4 4 4
2 2 2 2 1 2 2 1 1 2 1 1 2 2 2 3 3 2 3 4 5 4 3 2 2 4 3 3 2 2 3 3 3 3 3 4 4 4 5 5 5 5 5 5
2 2 2 2 3 2 2 2 2 2 2 3 3 3 4 4 3 3 4 4 3 4 3 3 4 5 5 3 2 3 3 3 4 4 4 5 5 5 5 5 5 5 5 5
2 2 3 2 2 2 3 3 3 2 3 3 3 4 4 3 3 4 4 4 4 4 3 4 5 6 5 2 3 3 3 4 4 4 4 5 5 5 5 5 6 6 5 6
3 2 2 2 2 3 3 2 2 2 2 2 3 4 3 3 4 4 3 3 4 4 3 5 6 7 4 3 3 4 4 4 5 5 5 5 5 6 6 6 6 6 6 6
3 3 3 4 3 3 2 2 2 3 2 3 4 4 3 3 3 3 3 3 4 4 4 3 4 5 4 4 4 5 5 5 6 5 5 5 6 6 6 6 7 7 7 7
2 2 2 2 3 3 3 3 3 4 4 4 4 4 4 3 3 3 3 3 3 3 4 4 4 4 4 4 4 5 5 5 5 5 5 5 6 6 7 7 7 7 7 7
Wind_Direction
237 249 224 235 248 211 196 196 199 228 229 253 261 262 275 300 336 16 13 18 20 325 320 319 325 319 306 292 260 194 170 187 226 238 238 232 223 220 216 213 219 214 212 220
290 278 259 262 260 237 229 218 215 233 254 254 250 214 244 289 300 327 323 319 316 306 296 287 282 279 285 284 266 202 194 212 223 220 220 239 238 220 211 217 223 214 216 219
264 301 341 274 250 223 214 210 192 218 236 225 214 225 233 243 243 250 269 279 276 254 245 256 264 262 263 265 260 202 217 227 216 210 221 233 246 235 230 224 212 218 222 216
198 45 244 250 271 188 177 234 222 223 223 204 212 225 233 219 226 256 270 279 281 274 270 264 269 282 285 321 334 240 272 283 267 238 246 246 222 234 242 231 218 225 230 223
141 225 278 290 261 180 182 262 244 222 238 247 155 54 327 283 241 241 255 255 255 252 254 279 302 309 354 16 3 301 274 273 270 248 242 239 237 243 241 223 234 232 232 225
148 191 244 255 274 219 130 273 265 209 213 184 115 128 272 290 283 286 302 287 282 286 283 303 301 343 89 30 33 293 274 269 266 248 237 235 234 237 234 219 228 234 246 239
178 219 259 261 272 122 167 246 258 205 195 173 187 214 247 285 290 292 322 318 339 351 302 269 274 143 125 359 282 276 284 282 291 274 254 248 245 241 218 208 212 226 247 262
163 203 254 262 129 172 218 238 222 213 200 195 218 242 260 269 283 313 330 330 345 348 303 290 272 161 233 267 270 284 296 293 287 283 274 284 256 259 231 190 198 227 254 281
192 214 244 232 208 232 200 208 231 220 225 199 222 251 261 266 269 277 277 284 291 277 293 301 283 213 233 271 283 295 307 294 284 285 283 261 234 232 238 208 214 235 236 257
234 257 254 259 258 263 227 226 249 237 221 192 220 238 245 256 261 267 272 266 268 278 291 295 290 266 252 273 276 265 270 277 281 272 290 296 267 232 225 228 238 248 246 252
245 267 289 285 252 243 244 234 245 250 225 208 213 239 239 240 248 250 258 258 250 251 262 275 280 279 278 271 252 238 259 279 284 276 274 288 293 265 244 238 230 232 243 238
228 224 207 247 252 240 242 254 246 239 255 247 220 236 244 244 246 245 251 251 255 259 263 273 278 285 286 273 230 215 261 279 273 266 268 270 281 309 298 271 274 267 258 247
229 228 215 247 259 246 236 244 243 232 231 243 244 235 234 244 250 247 251 243 244 253 262 271 275 281 285 267 218 218 239 257 264 266 259 257 260 266 296 313 294 277 278 276
230 216 244 244 245 252 243 245 244 241 243 240 247 243 238 246 252 251 250 246 243 245 256 266 276 280 278 251 222 237 251 266 267 257 254 252 253 261 266 282 305 310 293 277
236 218 221 237 251 262 251 224 228 256 260 263 250 239 234 237 250 255 254 254 244 247 256 262 277 286 291 256 236 242 247 259 255 249 251 252 258 260 267 273 278 292 309 305
247 232 220 230 245 254 253 239 237 249 251 251 253 249 241 240 253 261 258 231 224 245 256 262 273 278 281 256 246 259 255 267 268 252 243 247 250 256 265 270 274 278 285 297
206 241 241 244 246 250 244 239 236 243 244 245 250 249 247 252 279 286 278 251 231 241 250 251 268 282 272 247 239 252 260 271 277 273 257 251 248 256 266 266 271 275 277 281
215 220 218 219 231 241 252 251 245 244 245 248 248 236 226 232 252 267 273 273 271 283 273 265 268 282 277 264 250 242 246 256 257 258 261 265 265 260 264 268 270 275 285 287
232 223 227 231 232 226 232 245 248 249 255 243 222 220 233 247 258 268 279 277 267 274 279 271 270 275 272 270 281 259 245 252 261 266 264 269 271 269 267 271 274 272 276 279
282 258 238 253 254 227 236 251 250 264 264 227 211 229 255 266 269 270 268 265 259 258 265 264 259 258 263 269 276 265 253 251 254 258 261 261 264 270 270 269 271 274 278 278
268 271 264 271 287 285 258 247 237 255 263 219 213 232 249 266 270 258 252 271 280 273 266 262 256 256 262 264 273 259 255 257 254 248 249 255 263 269 271 271 270 270 270 272
247 244 252 258 262 284 286 263 238 245 254 250 250 251 256 269 274 271 256 253 271 272 273 265 262 262 268 270 265 257 258 260 261 257 253 253 256 261 265 267 267 268 268 268
243 240 247 250 243 254 279 272 245 234 240 248 250 251 252 255 251 247 273 271 267 275 280 265 266 271 272 268 258 254 256 259 261 261 257 254 255 258 261 264 265 267 268 268
258 251 251 252 234 237 259 265 255 251 249 255 253 250 249 259 270 256 256 275 279 282 276 269 273 276 280 271 259 255 255 257 259 264 265 261 256 257 258 261 265 265 264 266
251 252 255 252 247 252 256 260 268 272 267 273 274 268 258 245 249 264 265 264 271 281 281 278 277 280 279 262 259 259 258 256 256 258 257 260 259 255 256 257 260 261 261 259
240 239 242 241 245 253 250 242 251 261 262 273 281 276 270 265 258 257 258 260 263 276 276 274 272 273 265 260 262 261 260 267 272 268 259 259 262 262 261 260 261 259 259 259
255 250 251 267 267 250 242 240 246 255 252 253 270 275 270 267 264 261 261 265 268 268 272 274 270 268 267 266 267 266 265 266 265 265 263 262 262 264 264 263 262 262 261 261
Height
1528 1525 1525 1525 1524 1525 1528 1530 1534 1529 1528 1523 1521 1519 1518 1518 1517 1516 1516 1516 1516 1516 1517 1517 1518 1518 1519 1519 1520 1520 1521 1521 1521 1522 1522 1523 1523 1524 1525 1526 1527 1527 1528 1529
1527 1524 1524 1524 1522 1522 1523 1524 1525 1524 1524 1518 1518 1517 1517 1517 1516 1516 1515 1515 1515 1515 1516 1516 1516 1516 1517 1517 1517 1518 1518 1518 1519 1519 1520 1520 1520 1520 1521 1522 1523 1523 1524 1525
1534 1528 1525 1528 1520 1519 1520 1519 1520 1523 1520 1516 1516 1515 1515 1515 1515 1515 1515 1514 1514 1514 1514 1514 1514 1515 1515 1515 1515 1515 1515 1515 1516 1516 1516 1517 1517 1518 1518 1518 1519 1519 1520 1521
1535 1531 1534 1523 1515 1514 1516 1517 1516 1515 1514 1513 1513 1514 1514 1514 1514 1514 1514 1513 1513 1513 1513 1513 1513 1513 1513 1513 1513 1513 1513 1513 1513 1513 1513 1514 1514 1514 1514 1515 1515 1515 1516 1517
1538 1535 1530 1520 1514 1514 1516 1516 1513 1513 1512 1512 1512 1513 1513 1513 1513 1513 1513 1512 1512 1511 1511 1511 1511 1510 1510 1510 1510 1510 1510 1510 1510 1510 1510 1511 1511 1511 1511 1511 1511 1512 1512 1513
1536 1533 1532 1520 1512 1510 1514 1517 1511 1510 1510 1511 1512 1516 1513 1511 1511 1511 1511 1510 1510 1509 1509 1509 1508 1508 1507 1507 1507 1507 1507 1507 1507 1507 1507 1507 1507 1507 1507 1508 1508 1508 1508 1509
1534 1532 1525 1514 1510 1511 1520 1517 1509 1508 1508 1509 1510 1511 1510 1509 1509 1509 1509 1508 1508 1507 1507 1506 1506 1505 1505 1504 1504 1504 1504 1504 1504 1504 1504 1504 1504 1504 1503 1504 1504 1504 1504 1505
1533 1532 1526 1510 1510 1513 1511 1507 1507 1507 1507 1507 1507 1508 1507 1507 1507 1506 1506 1505 1505 1505 1504 1503 1503 1503 1502 1502 1501 1501 1501 1501 1501 1500 1501 1501 1500 1500 1500 1499 1499 1500 1500 1500
1520 1518 1510 1507 1507 1507 1506 1506 1506 1506 1506 1506 1506 1505 1505 1505 1505 1504 1504 1503 1503 1502 1502 1501 1500 1500 1499 1499 1499 1498 1498 1498 1497 1497 1497 1497 1497 1496 1496 1496 1496 1495 1495 1495
1514 1509 1506 1505 1505 1505 1505 1505 1504 1504 1504 1504 1504 1503 1503 1503 1502 1502 1501 1501 1500 1500 1499 1498 1498 1497 1497 1496 1496 1495 1494 1494 1494 1494 1493 1493 1493 1492 1492 1492 1492 1491 1491 1491
1510 1506 1504 1502 1502 1502 1502 1502 1502 1502 1502 1502 1501 1501 1500 1500 1499 1499 1499 1498 1497 1497 1496 1495 1495 1494 1494 1493 1492 1492 1491 1491 1490 1490 1490 1489 1488 1488 1488 1488 1488 1487 1487 1487
1505 1500 1501 1500 1500 1500 1500 1500 1499 1499 1499 1499 1498 1498 1497 1497 1496 1496 1495 1494 1494 1493 1492 1492 1491 1490 1490 1490 1489 1488 1487 1487 1486 1486 1485 1485 1484 1484 1483 1484 1483 1483 1482 1483
1496 1496 1497 1497 1497 1497 1497 1497 1497 1496 1496 1495 1495 1494 1494 1493 1492 1492 1491 1490 1490 1489 1489 1488 1488 1487 1487 1486 1486 1485 1484 1483 1483 1482 1481 1481 1480 1480 1479 1478 1478 1478 1478 1478
1493 1494 1493 1493 1494 1494 1494 1493 1493 1493 1492 1491 1491 1490 1490 1489 1488 1488 1487 1486 1486 1486 1485 1485 1484 1483 1483 1483 1482 1481 1480 1479 1479 1479 1478 1477 1476 1476 1475 1474 1473 1472 1473 1473
1490 1490 1490 1490 1490 1490 1490 1489 1489 1488 1488 1487 1487 1486 1485 1485 1484 1483 1483 1483 1482 1482 1481 1481 1480 1480 1479 1478 1478 1477 1476 1476 1475 1475 1474 1473 1473 1472 1471 1470 1469 1468 1468 1468
1486 1486 1486 1486 1486 1486 1486 1485 1485 1484 1484 1483 1483 1482 1481 1481 1480 1480 1479 1479 1478 1478 1477 1477 1476 1476 1475 1475 1474 1473 1472 1472 1471 1470 1470 1469 1468 1468 1467 1466 1465 1464 1463 1463
1483 1482 1482 1482 1482 1482 1482 1481 1481 1480 1480 1479 1479 1478 1478 1477 1476 1475 1475 1474 1474 1474 1473 1473 1472 1472 1471 1471 1470 1469 1468 1468 1467 1466 1465 1465 1464 1464 1463 1462 1461 1459 1459 1458
1479 1479 1479 1479 1479 1478 1478 1477 1477 1476 1476 1475 1475 1474 1474 1473 1472 1472 1471 1470 1470 1469 1469 1469 1468 1468 1467 1467 1466 1465 1464 1463 1463 1462 1461 1461 1460 1459 1459 1457 1456 1455 1454 1454
1476 1476 1476 1476 1476 1475 1474 1474 1473 1473 1472 1472 1471 1471 1470 1469 1469 1468 1467 1467 1465 1465 1465 1465 1464 1464 1463 1462 1462 1461 1460 1459 1458 1458 1457 1456 1456 1455 1454 1453 1452 1451 1450 1449
1473 1473 1473 1473 1472 1472 1471 1470 1470 1469 1469 1468 1468 1467 1466 1466 1465 1465 1464 1462 1462 1461 1461 1460 1460 1459 1458 1458 1457 1456 1455 1455 1454 1453 1452 1452 1451 1450 1449 1448 1447 1446 1445 1444
1471 1470 1470 1470 1469 1469 1468 1467 1467 1466 1466 1465 1465 1464 1463 1462 1462 1461 1459 1458 1458 1457 1457 1456 1455 1455 1454 1453 1453 1452 1451 1450 1449 1449 1448 1447 1446 1445 1444 1443 1442 1441 1440 1439
1469 1468 1467 1467 1466 1466 1465 1465 1464 1463 1463 1462 1461 1461 1459 1458 1457 1457 1456 1455 1454 1453 1452 1451 1451 1450 1450 1449 1448 1447 1446 1446 1445 1444 1443 1442 1441 1440 1439 1438 1437 1436 1435 1434
1466 1465 1465 1464 1464 1463 1463 1462 1461 1461 1460 1459 1458 1457 1456 1455 1454 1453 1451 1451 1450 1449 1448 1447 1447 1446 1446 1444 1443 1443 1442 1440 1439 1438 1437 1436 1436 1435 1434 1432 1431 1430 1429 1428
1463 1463 1462 1462 1461 1460 1459 1458 1458 1457 1456 1455 1454 1454 1453 1451 1450 1449 1448 1447 1446 1445 1444 1443 1443 1442 1441 1439 1438 1437 1436 1435 1434 1433 1432 1431 1430 1429 1428 1427 1426 1425 1424 1423
1460 1460 1459 1458 1457 1456 1456 1455 1454 1453 1453 1452 1451 1450 1449 1448 1446 1445 1444 1443 1442 1441 1440 1439 1438 1437 1435 1434 1433 1432 1431 1429 1428 1427 1426 1425 1424 1423 1422 1421 1420 1418 1417 1416
1457 1456 1456 1455 1454 1454 1453 1452 1451 1450 1449 1448 1447 1446 1445 1443 1442 1441 1440 1439 1438 1437 1435 1434 1433 1431 1430 1429 1427 1426 1425 1424 1423 1421 1420 1419 1418 1417 1415 1414 1413 1412 1411 1410
1453 1453 1452 1451 1451 1450 1449 1448 1447 1446 1445 1444 1443 1442 1441 1439 1438 1437 1435 1434 1433 1431 1430 1429 1427 1426 1424 1423 1422 1420 1419 1418 1416 1415 1414 1412 1411 1410 1409 1407 1406 1405 1404 1403